AirNav   Air Wisconsin pilot careers
 
 313 users online  

KEGT Wellington Municipal Airport
Wellington, Kansas, USA

GOING TO WELLINGTON?


FAA INFORMATION EFFECTIVE 26 APRIL 2018

Location

FAA Identifier: EGT
Lat/Long: 37-19-25.0000N / 097-23-18.0000W
37-19.416667N / 097-23.300000W
37.3236111 / -97.3883333
(estimated)
Elevation: 1277.1 ft. / 389.3 m (surveyed)
Variation: 07E (1990)
From city: 3 miles N of WELLINGTON, KS
Time zone: UTC -5 (UTC -6 during Standard Time)
Zip code: 67152

Airport Operations

Airport use: Open to the public
Activation date: 11/1942
Control tower: no
ARTCC: KANSAS CITY CENTER
FSS: WICHITA FLIGHT SERVICE STATION
NOTAMs facility: ICT (NOTAM-D service available)
Attendance: 0800-1700
Wind indicator: lighted
Segmented circle: no
Lights: ACTVT HIRL RY 17/35; REIL RYS 17 & 35 - CTAF. PAPI RYS 17 & 35 ARE ON 24 HRS.
Beacon: white-green (lighted land airport)
Operates sunset to sunrise.

Airport Communications

CTAF/UNICOM: 122.8
WX AWOS-3: 118.875 (620-326-2470)
WICHITA APPROACH: 134.85
WICHITA DEPARTURE: 134.85
WX ASOS at WLD (19 nm SE): 118.025 (620-221-9121)
WX ASOS at ICT (20 nm N): PHONE 316-945-8022

Nearby radio navigation aids

VOR radial/distance  VOR name  Freq  Var
ICTr153/27.0WICHITA VORTAC113.8007E
PERr336/36.3PIONEER VORTAC113.2006E
ANYr068/38.7ANTHONY VORTAC112.9007E

Airport Services

Fuel available: 100LL JET-A
FOR JET A AFT HRS CALL 316-440-2213.
SELF SVC FUEL 100LL AVBL 24 HR WITH CREDIT CARD.
Parking: tiedowns
Airframe service: MAJOR
Powerplant service: MAJOR
Bottled oxygen: NONE
Bulk oxygen: NONE

Runway Information

Runway 17/35

Dimensions: 4201 x 100 ft. / 1280 x 30 m
Surface: concrete, in good condition
Weight bearing capacity: 
Single wheel: 49.0
Double wheel: 60.0
Runway edge lights: high intensity
RUNWAY 17  RUNWAY 35
Latitude: 37-19.763397N37-19.071310N
Longitude: 097-23.304653W097-23.295988W
Elevation: 1276.5 ft.1271.1 ft.
Gradient: 0.2%0.2%
Traffic pattern: leftleft
Runway heading: 172 magnetic, 179 true352 magnetic, 359 true
Markings: nonprecision, in good conditionnonprecision, in good condition
Visual slope indicator: 2-light PAPI on left (3.00 degrees glide path)2-light PAPI on left (3.00 degrees glide path)
Runway end identifier lights: yesyes
Touchdown point: yes, no lightsyes, no lights

Airport Ownership and Management from official FAA records

Ownership: Publicly-owned
Owner: CITY OF WELLINGTON
441 NORTH WEST ROAD
WELLINGTON, KS 67152
Phone (620) 440-2213
Manager: MATTHEW D. WIEBE
441 NORTH WEST ROAD
WELLINGTON, KS 67152
Phone (620) 440-2213
TERMINAL BLDG. PHONE 620-440-2213 FAX 620-326-6163

Airport Operational Statistics

Aircraft based on the field: 30
Single engine airplanes: 26
Multi engine airplanes: 4
    
Aircraft operations: avg 50/day *
54% transient general aviation
44% local general aviation
1% commercial
<1% military
* for 12-month period ending 03 September 2015

Additional Remarks

FOR SPECIAL REQS & AFT HRS CALL 620-440-2213.
KEY CODE FOR PILOT LOUNGE 1228

Instrument Procedures

NOTE: All procedures below are presented as PDF files. If you need a reader for these files, you should download the free Adobe Reader.

NOT FOR NAVIGATION. Please procure official charts for flight.
FAA instrument procedures published for use from 26 April 2018 at 901Z to 24 May 2018 at 0900Z.

 
IAPs - Instrument Approach Procedures
RNAV (GPS) RWY 17   download (233KB)
RNAV (GPS) RWY 35   download (248KB)
VOR RWY 17   download (232KB)
NOTE: Special Take-Off Minimums/Departure Procedures apply   download (147KB)

Other nearby airports with instrument procedures:

KIAB - Mc Connell Air Force Base (19 nm N)
KWLD - Strother Field Airport (19 nm SE)
KICT - Wichita Dwight D Eisenhower National Airport (20 nm N)
KCEA - Cessna Aircraft Field Airport (21 nm N)
KBEC - Beech Factory Airport (24 nm N)
 
Loc | Ops | Rwys | IFR | FBO | Links
Com | Nav | Svcs | Stats | Notes

Kansas City Aviation Department
 
Area around KEGT (Wellington Municipal Airport)
 
Road maps at: MapQuest Bing Google
 
Aerial photo
WARNING: Photo may not be current or correct
Aerial photo of KEGT (Wellington Municipal Airport)
Photo taken 04-Sep-2015
looking east.

Do you have a better or more recent aerial photo of Wellington Municipal Airport that you would like to share? If so, please send us your photo.

 
Sectional chart

 
Airport distance calculator
Flying to Wellington Municipal Airport? Find the distance to fly.

From to KEGT

Sunrise and sunset
Times for 22-May-2018
 Local
(UTC-5)
 Zulu
(UTC)
Morning civil twilight05:4710:47
Sunrise06:1711:17
Sunset20:3601:36
Evening civil twilight21:0602:06

Current date and time
Zulu (UTC)  22-May-2018 08:58:43
Local (UTC-5)  22-May-2018 03:58:43
 
METAR
KIAB 
19nm N 
220756Z AUTO 17007KT 10SM CLR 19/15 A2998 RMK AO2 SLP144 T01880153
KWLD 
19nm SE 
220854Z AUTO 00000KT 10SM CLR 18/17 A3001 RMK AO2 SLP152 T01780167 55001
KICT 
20nm N 
220853Z 16006KT 10SM BKN250 18/16 A2999 RMK AO2 SLP145 T01780161 53001
KBEC 
24nm N 
220835Z AUTO 12003KT 10SM CLR 18/15 A2999 RMK AO2 T01750148
K3AU 
26nm NE 
220835Z AUTO 14004KT 10SM CLR 16/16 A3000 RMK AO2
KAAO 
27nm N 
220854Z AUTO 15008KT 10SM CLR 18/16 A2999 RMK AO2 SLP146 T01780161 55001
K1K1 
30nm NE 
220835Z AUTO 15005KT 10SM CLR 17/15 A3000 RMK AO2 T01700147
8K2 
31nm W 
SuperAWOS
220755Z AUTO 00000KT 10SM 18/16 A3001
KBKN 
35nm S 
220855Z AUTO 00000KT 9SM CLR 18/18 A3002 RMK AO2
TAF
KIAB 
19nm N 
211800Z 2118/2224 VRB06KT 9999 FEW030 FEW250 QNH2997INS BECMG 2207/2208 VRB06KT 9999 SCT010 QNH3002INS BECMG 2215/2216 20012KT 9999 SKC QNH2996INS TX30/2120Z TN15/2208Z
KICT 
20nm N 
220522Z 2206/2306 15006KT P6SM SCT250 TEMPO 2208/2212 5SM BR FM221600 17010KT P6SM SCT250
NOTAMs
Click for the latest NOTAMs
NOTAMs are issued by the DoD/FAA and will open in a separate window not controlled by AirNav.

 

 
 

FBO, Fuel Providers, and Aircraft Ground Support

  
 Business Name 
 
 Contact 
 
 Services / Description 
 
Fuel Prices
 
Comments
  
 Wellington Municipal Airport
620-440-2213
[web site]
[email]
Airport management, Aviation fuel, Aircraft parking (ramp or tiedown), Hangars, Passenger terminal and lounge, Flight training, Aircraft modifications, Pilot supplies, ...
 
Courtesy car   Enterprise Rent-A-Car  
 
More info about Wellington Municipal Airport
Avfuel
100LL Jet A
AS $4.35 --- 
FS --- $3.20 
 Updated 15-May-2018
 
   2 read write
AS=Assisted/Self Service
FS=Full service
Update Fuel Prices
 

Aviation Businesses, Services, and Facilities

  
 Business Name 
 
 Contact 
 
 Services / Description 
 
Distance
 
Comments
  
Air Plains Services 620-326-8904
toll-free 1-800-752-8481
[web site]
[email]
Aircraft maintenance, Aircraft modifications, Aircraft painting, Aircraft interiors, Aircraft parts

More info about Air Plains Services
on airport  
   write
 

Would you like to see your business listed on this page?

 If your business provides an interesting product or service to pilots, flight crews, aircraft, or users of the Wellington Municipal Airport, you should consider listing it here.  To start the listing process, click on the button below
 
Add a business
 

Other Pages about Wellington Municipal Airport

cityofwellington.net/municipal-airport
 
Update a link
 
Copyright © AirNav, LLC. All rights reserved. Privacy Policy  Contact